星链-1296 (STARLINK-1296 )

导读

STARLINK-1296是美国SpaceX公司星链(Starlink)星座的成员卫星,于2020年3月18日发射升空。星链计划旨在构建全球卫星互联网星座,为偏远地区提供宽带接入服务。这颗卫星运行在近地轨道,属于星链组网的第一批卫星之一,和其他星链卫星一起为后续大规模组网和全球服务落地奠定了基础。目前它已成为全球规模最大卫星互联网星座的重要组成部分。

Basic Information
目录编号:
45412
目录名称:
STARLINK-1296
国际标识:
2020-019BE
轨道中心:
EARTH
卫星名称:
星链-1296
卫星全名:
星链-1296 (STARLINK-1296 )
卫星状态:
在轨 (已飞行2284 天)
发射日期:
2020-03-18 UTC
国别 :
美国 (US)
星等 :
--
Orbit Information
数据来源 国际轨道数据 AOE轨道数据
星历时间 2026-06-19T02:21:47+0800
6小时前
查看轨道信息
2026-06-16T18:00:00+0800
2天前
查看轨道信息
半长轴 6825.816km 6826.379km
偏心率 0.0003842 0.0004071
轨道倾角 53.156° 53.154°
近地点辐角 110.851° 102.257°
升交点赤经 16.510° 27.573°
平近点角 249.291° 196.007°
近地点 445.056km 445.462km
远地点 450.302km 451.022km
周期 93.539分钟 93.550分钟
每日圈数 15.39469 15.392787
Detailed Information
固有亮度:
5
最大亮度:
2.5
卫星平台:
Starlink V1.0
覆盖范围:
全球
运营商:
太空探索技术公司
运营商所在国:
美国
制造商(研发单位):
太空探索技术公司
制造商所在国:
美国
使用方式:
暂无
Satellite Introduction
星链(Starlink)计划是由太空探索技术公司(SpaceX)提出的一个巨型低轨卫星互联网星座项目,计划在2019年至2024年间在太空搭建由约1.2万颗卫星组成的“星链”网络,其中1584颗将部署在地球上空550千米处的近地轨道,并从2020年开始工作。该卫星仍在工作。
2D Orbit Map
3D Orbit Map
Orbit Altitude Analysis Chart
Orbit Inclination Analysis Chart
Orbit Comprehensive Analysis Chart
View Comprehensive Chart